Theta_e
347 347 347 348 348 348 347 348 349 349 350 350 350 350 349 350 350 351 351 351 351 348 345 345 345 347 350 349 347 346 345 346 348 351 354 354 353 353 353 352 353 353 350 347 346 347 348 347 346 344 342 339 336 333 332 331 329 322 317 319 328 337 337 333 334 336 339 341 340 340 341 338 336 337 340 341 340 339 339 340 341 341 341 340 340
347 347 346 347 348 348 348 348 349 349 349 350 350 350 349 351 351 350 351 351 350 349 346 342 341 341 343 343 341 342 344 343 344 347 352 354 354 353 354 353 353 352 350 349 347 347 347 346 345 343 340 338 334 331 327 323 320 318 318 325 331 336 337 335 334 334 336 339 341 342 343 340 338 338 339 340 340 338 338 338 339 340 339 338 339
347 346 347 346 347 348 347 348 349 349 349 350 351 350 349 350 351 351 350 351 350 348 346 341 338 337 338 339 339 342 344 344 344 344 348 354 355 354 354 353 352 351 350 349 348 347 347 346 345 343 339 337 334 329 323 317 317 318 322 329 334 338 341 338 335 333 331 333 338 340 340 341 340 339 339 339 338 337 338 338 338 338 337 335 336
347 347 347 347 347 348 347 348 348 349 349 350 351 351 350 350 351 351 350 350 350 347 344 342 339 336 336 337 337 341 344 345 345 345 349 354 356 356 355 354 352 350 348 349 350 347 347 347 345 342 339 337 334 327 319 317 321 323 325 331 337 342 343 342 339 334 329 330 335 338 340 341 341 340 339 337 337 337 337 337 335 333 332 330 333
348 347 347 347 347 348 348 348 348 348 349 349 350 351 351 350 350 351 351 350 350 346 343 343 341 338 337 338 339 342 344 347 349 349 352 355 356 355 355 354 353 350 348 350 351 349 348 347 345 342 340 338 332 322 316 319 324 328 331 332 339 343 342 341 340 333 329 329 331 336 340 341 341 339 338 337 337 337 336 335 333 331 329 327 329
347 348 347 347 347 348 348 348 348 348 348 349 349 350 352 351 350 351 352 350 349 347 342 342 342 341 340 341 342 344 346 348 351 351 352 355 355 355 354 354 353 350 348 349 350 349 348 347 344 340 341 339 328 316 316 319 323 332 337 334 336 341 341 339 339 337 334 330 329 333 338 341 340 338 338 338 336 337 336 335 333 331 330 327 328
346 348 347 347 347 347 348 348 348 348 349 349 349 350 351 352 352 351 351 351 349 347 344 341 342 343 343 343 343 344 345 346 347 349 350 353 354 354 353 353 352 351 348 348 348 348 347 346 343 341 342 337 323 315 317 321 329 337 340 336 333 338 340 336 337 339 339 336 334 334 333 336 336 334 338 338 336 336 335 334 333 331 330 328 328
345 347 348 347 346 347 348 348 349 349 349 350 350 351 351 352 352 351 351 351 348 347 345 340 339 342 343 344 344 343 343 343 344 348 351 353 353 353 353 352 352 351 350 349 347 346 345 344 343 342 339 329 319 315 317 324 335 338 336 335 333 335 336 333 334 337 337 337 336 334 331 330 329 327 332 336 335 335 334 334 334 332 330 328 328
344 345 347 347 346 346 347 348 349 350 350 351 351 351 351 353 353 352 351 350 348 346 344 340 336 338 340 343 345 343 343 342 343 347 350 352 353 352 353 352 351 351 352 351 347 344 345 344 344 342 332 321 316 317 319 323 331 334 332 332 332 332 331 332 336 336 335 336 335 334 331 326 326 327 328 331 331 332 334 335 334 332 330 328 328
345 344 345 346 346 346 346 348 349 350 351 350 351 352 352 352 353 353 352 350 349 346 343 340 337 336 338 340 342 343 343 343 345 347 348 351 352 352 351 351 351 351 352 351 347 345 346 344 343 342 331 319 316 318 322 324 326 330 330 329 330 331 328 332 337 336 334 336 335 334 332 325 328 334 334 334 333 332 334 335 334 333 331 330 330
346 345 345 345 346 346 346 347 349 350 351 351 352 352 352 353 353 354 353 351 349 347 343 339 337 337 338 338 339 341 342 343 346 347 348 350 351 350 351 351 351 351 351 350 347 345 345 344 342 343 333 318 316 320 325 329 330 327 326 325 327 330 330 331 333 332 331 335 332 330 329 326 330 337 337 336 337 334 332 333 334 333 332 333 332
347 346 346 346 347 347 347 347 349 350 351 352 352 353 353 353 353 354 354 352 351 349 345 340 338 337 337 338 339 339 340 343 345 346 348 349 349 350 351 351 351 351 351 350 347 344 345 343 342 342 332 318 316 321 324 330 332 329 329 328 325 328 331 329 329 328 327 330 329 326 328 329 332 336 336 335 336 334 331 331 332 332 333 334 333
347 347 347 347 347 348 348 348 349 350 352 352 353 353 354 353 353 354 354 353 352 351 348 343 340 338 338 338 339 339 340 343 345 346 346 347 348 350 351 351 350 349 349 348 346 344 343 343 341 336 326 316 316 320 321 325 329 331 334 332 327 327 330 328 328 328 327 328 329 329 332 334 333 334 334 334 334 333 332 329 328 329 332 334 334
348 348 347 348 348 349 348 348 349 350 352 353 353 354 354 354 354 353 354 354 352 351 350 346 343 340 339 338 338 339 340 342 345 346 346 346 347 349 349 347 346 345 345 344 343 343 342 342 340 331 320 316 317 318 320 322 327 332 334 332 328 327 328 328 328 328 329 329 330 332 334 335 335 334 332 332 331 330 330 329 328 328 329 330 331
347 348 348 349 349 349 349 349 349 350 351 353 353 354 354 354 354 354 354 354 353 352 351 348 345 342 340 339 337 338 340 342 344 345 346 346 346 348 348 345 343 342 342 341 341 342 342 340 339 331 319 315 317 318 318 321 326 332 332 330 328 325 325 328 329 329 329 328 329 332 334 334 334 334 332 330 329 329 328 328 327 327 328 328 328
348 348 349 349 349 349 350 350 350 350 351 353 354 354 355 355 355 355 354 354 354 353 352 350 347 344 342 339 336 337 341 342 343 344 346 346 344 345 346 344 342 341 341 342 341 343 342 339 338 332 320 315 316 316 317 319 323 327 327 327 326 323 322 327 330 330 329 328 327 328 330 331 330 331 331 329 328 328 328 328 328 327 328 329 329
349 350 348 348 349 349 350 351 351 351 351 352 353 354 355 355 355 355 355 355 354 354 353 351 349 347 343 339 337 337 340 343 343 343 345 346 345 344 344 343 342 342 342 343 342 342 341 339 337 332 321 315 316 317 317 317 318 320 321 322 323 321 321 326 329 329 329 328 326 325 327 328 329 329 329 329 330 330 330 330 329 329 329 330 330
348 350 349 349 350 350 351 352 351 352 352 352 353 354 355 355 355 356 356 356 356 355 355 353 352 349 344 340 338 337 340 342 342 342 344 345 346 344 344 344 342 342 343 343 343 342 341 340 337 331 322 316 316 316 317 317 317 317 318 319 320 321 322 325 327 327 328 327 325 326 328 328 329 330 330 330 331 331 331 330 329 330 330 330 331
349 349 349 349 350 350 352 352 352 353 352 353 354 354 355 356 356 356 356 356 356 357 357 355 353 350 344 339 338 339 340 340 341 342 343 345 345 344 344 344 343 342 343 344 344 343 342 341 339 334 326 318 315 316 316 317 317 317 318 318 319 321 323 325 326 326 325 324 323 327 329 329 329 329 328 328 328 328 329 328 328 330 331 332 332
348 348 348 348 349 350 351 352 352 353 353 353 354 354 355 356 356 357 357 356 357 358 358 357 354 351 345 340 338 339 340 340 340 341 342 344 344 343 343 343 343 342 343 344 344 344 343 342 341 338 330 319 315 317 316 317 318 317 317 317 318 321 322 325 328 327 323 322 322 324 328 330 330 328 326 325 325 325 325 326 327 329 331 334 335
346 346 347 346 348 349 350 352 352 353 354 354 354 355 355 356 356 357 358 358 358 358 358 357 354 351 347 341 338 339 340 340 340 340 342 343 343 343 342 342 342 342 343 344 344 344 342 342 341 340 334 324 317 316 316 317 318 317 317 317 318 320 321 324 328 326 322 321 321 322 325 329 330 327 324 324 325 327 328 328 328 328 330 333 335
346 345 346 346 348 350 350 352 352 352 353 353 354 355 355 355 356 356 357 358 358 358 358 357 355 351 347 342 339 339 341 341 342 342 342 342 343 343 342 342 342 342 343 344 344 344 343 341 341 340 338 330 320 316 316 317 317 317 318 318 318 319 320 322 324 323 320 320 322 323 326 330 330 326 323 324 325 327 328 328 327 327 328 330 332
346 345 346 346 348 350 351 351 352 352 353 353 353 354 354 355 356 355 356 358 358 359 358 357 356 351 347 344 341 340 341 342 343 343 343 342 342 342 342 342 342 342 344 344 345 344 342 341 340 339 339 335 324 317 316 317 316 317 318 318 318 318 318 319 322 321 319 320 322 323 325 328 329 326 323 323 324 325 325 325 325 326 328 329 330
346 345 346 346 347 350 350 351 352 352 353 354 353 354 354 354 354 355 355 356 358 359 359 359 358 353 349 348 345 342 342 342 343 343 343 342 341 342 342 342 342 342 344 344 345 345 343 341 341 339 339 338 329 319 316 317 317 317 319 319 318 318 318 318 320 321 319 319 320 322 322 324 326 325 323 322 323 324 324 324 324 326 328 329 330
346 345 346 347 348 350 349 349 351 352 353 354 353 353 353 354 354 354 355 357 358 359 359 359 359 356 353 350 347 345 344 343 343 343 343 343 342 342 342 343 343 342 343 344 345 345 344 342 341 340 340 340 333 323 317 317 317 318 320 319 318 318 319 318 319 320 321 320 319 321 322 322 323 324 323 323 324 324 324 325 325 326 328 329 330
346 346 347 348 349 349 349 351 352 354 354 353 353 354 353 354 354 354 355 357 358 359 360 359 359 358 355 351 349 348 346 345 343 343 343 343 344 343 344 344 344 344 343 343 343 343 343 341 341 341 341 341 337 328 319 317 317 318 320 320 319 319 319 319 319 320 320 320 319 321 323 323 323 324 324 323 323 324 325 326 325 325 326 328 330
346 347 347 347 348 348 349 350 353 354 355 354 353 353 354 354 354 354 355 357 358 359 360 360 360 359 357 353 350 347 347 346 346 344 343 344 345 345 346 345 345 345 345 344 343 343 343 342 342 342 342 342 340 332 323 320 318 318 320 321 319 318 319 321 321 320 320 319 319 320 322 323 324 324 324 323 323 325 326 326 325 324 324 326 327
347 347 347 347 349 350 351 352 354 355 354 354 354 353 354 354 354 355 355 356 358 359 361 362 362 361 359 354 349 347 347 347 347 345 345 346 347 347 347 347 346 347 347 346 346 344 344 345 345 344 344 344 342 336 328 322 318 318 320 321 320 319 319 320 321 322 321 320 320 321 322 323 324 323 323 325 326 328 330 330 329 329 328 327 327
347 346 346 347 348 350 352 353 355 356 355 355 354 353 354 354 355 356 356 356 357 358 361 364 363 362 360 355 350 348 348 347 348 348 347 347 348 349 350 349 349 348 348 348 348 348 348 347 347 347 347 346 344 339 332 325 320 318 320 322 322 320 318 319 321 323 322 322 322 322 322 323 323 324 327 330 331 332 333 333 333 333 332 332 331
346 345 343 343 342 343 345 348 351 354 355 356 355 355 355 355 355 356 356 356 357 358 361 363 364 363 361 358 354 350 349 348 348 348 347 347 348 350 351 352 351 350 350 350 350 350 351 350 349 349 348 348 346 342 336 330 323 319 319 322 322 320 319 319 321 322 322 322 321 322 325 329 331 333 334 334 335 335 335 334 334 334 333 333 333
347 344 342 341 340 342 343 344 346 348 352 354 356 356 356 355 356 356 357 357 357 358 360 362 364 364 362 361 358 353 351 349 347 347 347 348 350 352 354 354 354 353 353 353 352 352 351 352 352 351 350 350 348 344 340 334 327 320 318 319 320 319 318 319 321 322 321 319 321 326 331 333 335 337 338 337 337 336 336 335 334 334 334 334 333
352 349 345 342 343 346 347 347 347 347 350 352 355 356 356 356 357 357 358 358 358 359 360 361 362 363 363 362 360 357 354 350 349 349 348 350 352 354 356 356 356 355 355 356 355 354 353 353 353 353 353 352 350 346 343 338 331 322 317 318 319 318 318 319 321 322 321 323 330 335 334 330 330 334 337 337 337 336 336 335 335 335 335 335 334
353 353 351 348 347 348 349 348 349 350 351 352 354 356 357 357 357 357 359 360 360 360 360 360 361 362 362 361 360 360 357 354 352 351 352 353 354 356 358 357 357 357 357 358 358 357 356 355 355 355 354 352 351 348 344 341 334 324 318 316 318 317 317 319 321 323 326 330 333 334 332 329 327 332 336 337 337 336 335 334 335 335 335 335 335
345 348 351 351 351 350 350 348 347 349 348 350 353 354 354 356 357 358 360 361 360 360 360 360 360 361 360 360 360 361 360 357 355 354 355 356 356 358 358 358 358 358 358 359 359 359 358 357 356 356 354 353 351 349 346 342 336 327 318 316 320 320 319 320 322 325 329 330 329 326 327 327 328 333 336 336 336 336 335 333 333 334 335 336 335
339 340 343 347 349 349 347 345 344 344 344 348 353 354 353 355 358 359 360 360 360 359 359 359 359 360 360 360 360 361 361 360 359 357 357 357 358 359 359 359 359 359 359 360 360 360 359 358 357 356 355 354 352 350 347 343 338 331 321 318 321 321 321 322 323 326 330 331 328 324 324 326 328 332 336 336 335 334 331 328 326 326 330 333 334
340 340 339 344 346 346 344 342 341 341 342 347 351 352 354 357 358 359 359 359 359 358 357 357 358 359 359 360 361 362 362 362 361 359 359 359 360 360 360 360 360 359 360 360 360 360 359 358 358 356 355 354 352 350 347 342 339 333 324 320 318 318 322 326 327 330 333 333 328 323 322 325 325 326 332 335 332 327 324 324 323 322 327 333 333
334 337 340 343 343 342 340 341 343 343 343 344 346 348 354 358 359 360 360 359 358 357 356 355 356 358 359 360 361 362 363 363 362 361 361 361 361 362 361 361 360 360 360 360 359 360 359 359 358 356 355 353 350 348 346 342 339 335 330 328 323 320 326 332 334 335 332 330 328 325 323 325 323 323 330 332 327 323 323 323 322 324 330 334 332
330 331 334 338 342 343 342 341 344 345 344 344 344 346 351 354 358 361 361 360 359 358 356 355 355 357 359 360 362 363 363 363 363 363 363 363 362 362 361 360 360 359 359 359 358 358 358 358 358 356 355 352 349 348 345 343 341 338 336 334 327 325 331 336 337 336 330 326 328 327 323 324 325 326 329 327 323 322 322 321 323 329 333 334 331
331 330 330 331 336 339 342 345 346 347 347 347 345 345 348 351 354 359 361 361 361 359 357 356 356 358 360 362 363 364 364 364 364 364 364 363 362 361 360 359 358 358 358 358 357 357 358 358 358 356 354 351 348 347 344 343 342 339 339 335 326 324 332 336 334 333 330 326 325 323 320 322 325 326 326 324 324 323 321 321 326 333 336 334 333
334 335 335 333 333 334 339 345 347 346 346 347 347 349 349 348 351 357 362 362 361 361 360 359 359 361 363 364 365 365 365 365 365 365 364 362 361 361 360 359 357 357 358 358 358 358 358 358 357 355 353 350 349 346 344 343 342 341 341 335 324 320 326 329 328 328 328 326 324 321 320 323 326 327 325 324 324 323 321 323 329 334 336 335 333
334 336 337 337 335 332 333 340 346 347 346 345 348 352 352 350 352 358 362 363 362 362 362 362 364 365 366 367 367 366 366 366 365 363 362 361 361 359 359 358 357 356 357 358 358 359 358 358 357 355 353 352 349 346 345 343 343 343 339 331 322 320 321 323 325 326 325 324 323 321 322 325 326 325 323 323 323 322 323 325 331 335 335 334 333
337 333 336 343 347 340 332 332 337 343 346 346 349 356 356 354 355 359 362 363 363 364 364 366 367 368 368 368 367 366 367 366 364 364 362 360 357 355 354 354 355 356 357 357 358 358 358 357 355 354 353 351 348 346 345 344 344 342 336 327 323 323 324 326 328 327 326 325 323 322 324 325 325 323 322 323 323 323 325 330 333 335 335 333 332
347 336 338 353 363 360 354 351 350 351 354 357 360 363 361 358 359 362 363 364 365 366 367 368 369 369 368 368 367 366 366 364 364 363 360 355 352 351 351 352 354 357 357 357 357 357 357 356 355 353 352 350 348 347 345 343 343 341 334 326 325 326 328 330 332 329 327 325 323 323 324 324 323 323 323 324 324 324 328 333 335 335 333 331 331
359 352 348 357 368 369 367 367 368 366 366 366 365 364 361 361 363 364 364 365 367 369 369 370 370 369 368 367 366 365 364 363 362 359 354 351 350 351 352 354 355 356 356 356 356 356 356 355 354 353 351 349 347 345 343 341 341 339 332 326 326 328 329 330 331 328 326 324 324 324 323 322 323 325 327 326 325 324 327 331 332 330 329 328 328
363 363 360 361 366 369 367 367 368 367 367 368 368 366 365 366 367 366 365 367 370 371 371 371 370 369 368 366 364 361 359 358 356 353 351 351 352 353 354 355 356 356 356 356 356 355 354 354 353 352 351 347 345 343 341 339 338 338 334 330 328 329 330 332 332 328 324 324 324 323 323 325 327 329 328 326 324 324 326 328 328 327 326 325 325
358 362 364 362 363 363 361 359 358 357 361 367 370 369 368 368 368 367 368 369 371 372 371 370 369 367 365 361 358 355 355 355 354 353 353 354 354 354 355 355 356 355 355 354 354 353 353 352 351 350 349 346 344 342 340 337 336 335 334 332 330 331 333 333 331 327 324 323 323 324 327 330 329 327 325 323 323 325 326 325 324 323 323 323 323
356 359 361 360 359 357 353 351 350 352 361 368 369 368 369 369 369 369 370 371 371 370 369 367 365 362 360 358 355 354 355 354 354 354 354 354 354 354 354 355 355 354 354 354 353 352 351 349 349 348 346 345 344 341 339 336 334 333 331 331 332 334 333 330 327 325 324 323 325 329 333 332 329 325 323 323 323 324 324 323 323 323 323 323 323
355 356 358 359 358 355 354 354 355 359 366 369 368 368 370 371 370 370 370 369 368 366 366 364 361 359 358 357 355 354 355 354 354 354 354 354 354 354 354 354 353 353 353 352 351 350 349 348 347 347 345 344 343 340 338 336 335 334 332 332 334 333 330 328 327 326 324 326 330 333 332 329 326 324 323 323 324 324 325 325 325 325 324 324 323
355 356 356 359 360 360 362 364 364 364 366 368 367 366 366 366 366 366 366 365 364 363 363 361 358 357 355 353 353 353 353 352 352 352 353 353 353 353 352 351 350 351 351 350 349 348 348 347 347 346 345 344 342 340 338 337 336 334 333 332 332 331 330 328 327 325 325 329 332 331 328 326 324 323 324 326 326 327 327 327 326 326 325 324 323
353 354 355 357 360 362 362 361 361 363 363 361 361 361 360 361 362 363 363 363 362 360 359 357 356 355 353 352 352 352 351 350 350 351 351 352 352 351 350 349 348 348 348 348 348 347 347 347 347 346 345 343 341 339 338 336 335 334 333 332 332 331 329 328 326 326 327 330 330 327 326 325 324 324 326 328 328 328 328 327 327 326 325 324 323
349 350 351 351 353 357 357 355 355 357 356 353 354 355 356 357 358 360 361 361 359 357 356 355 354 353 352 352 351 351 351 351 350 350 349 348 348 348 348 348 347 347 347 347 346 346 346 346 344 344 343 342 340 338 337 335 334 332 331 332 332 331 329 328 327 327 327 326 325 325 326 326 325 325 326 327 326 327 328 328 327 326 324 323 322
Wind_Speed
35 33 32 33 35 36 35 35 34 33 31 30 31 32 33 33 32 30 28 26 26 28 29 29 28 28 27 25 23 20 18 19 21 19 16 16 16 14 12 10 9 8 8 9 9 9 8 7 6 5 5 4 3 4 5 6 7 7 6 3 5 6 3 2 4 2 1 4 4 3 3 5 6 10 11 9 7 7 8 7 8 8 6 5 5
35 34 33 32 34 36 35 35 35 35 34 33 32 33 34 33 33 32 30 29 28 27 28 29 29 27 27 25 22 20 18 18 20 20 19 18 17 16 13 12 11 9 9 11 11 10 9 7 5 6 6 4 4 5 4 5 5 5 5 6 7 7 3 1 2 1 3 1 3 4 2 3 5 9 10 9 6 5 7 9 9 6 3 3 2
36 36 34 34 34 36 36 36 36 35 35 34 32 33 35 34 33 34 33 31 30 28 27 28 29 27 25 23 21 20 18 17 17 18 18 18 17 17 15 13 12 10 10 12 12 10 8 6 6 7 6 6 6 5 4 4 2 4 6 8 8 7 4 1 1 2 3 1 2 4 2 1 4 8 10 9 5 4 5 6 6 2 3 3 2
37 38 37 36 35 36 37 37 37 37 36 35 34 34 36 37 36 36 35 34 32 30 27 26 26 26 24 23 21 20 18 17 16 17 17 18 18 17 16 13 12 11 11 12 12 10 8 7 7 8 7 6 5 4 4 2 2 4 5 8 9 5 3 2 1 3 2 1 2 4 3 2 5 7 8 8 5 6 5 3 3 2 5 4 3
39 40 39 38 38 38 39 39 39 39 39 38 37 37 37 38 39 38 37 36 35 32 28 25 25 25 25 23 22 21 20 18 18 18 18 19 20 18 17 14 12 12 12 13 13 10 8 9 9 9 8 6 4 3 4 3 5 6 5 7 9 7 5 4 1 4 3 1 1 4 5 4 6 7 8 7 6 7 6 2 3 4 7 2 2
40 41 41 40 40 40 40 40 41 41 41 41 40 40 39 39 40 39 39 38 37 34 30 27 26 26 26 26 26 25 24 22 22 21 20 20 20 19 17 15 12 13 13 13 12 10 9 10 10 9 8 6 5 4 4 5 6 6 4 5 9 8 7 5 2 3 4 3 2 3 5 5 7 7 7 7 5 4 3 1 1 3 6 3 4
40 41 42 42 41 42 42 42 43 42 43 43 42 41 40 39 39 40 40 39 38 36 33 30 29 29 28 29 29 28 27 25 22 21 20 20 20 19 18 15 13 13 12 13 14 12 11 11 11 10 9 8 6 6 5 7 9 7 6 6 8 9 9 6 5 2 2 4 4 2 4 4 5 6 5 6 6 3 3 1 0 1 4 5 3
40 41 42 44 43 44 45 45 45 44 43 43 42 42 41 40 40 40 40 40 39 38 36 33 31 31 30 29 29 28 27 25 22 21 20 20 20 20 18 16 14 14 13 14 15 13 12 12 11 10 10 7 7 8 8 11 12 10 8 7 8 10 10 8 7 5 2 4 5 3 2 2 3 5 5 6 5 5 5 3 2 2 3 4 2
41 41 42 44 45 45 46 47 46 45 44 44 43 43 42 41 40 40 40 40 39 38 37 34 33 33 32 30 30 28 26 24 22 21 22 21 19 19 20 19 17 16 15 16 15 13 13 12 11 10 9 6 7 9 10 11 12 11 9 7 9 11 11 10 9 7 4 3 5 5 3 2 4 4 4 5 4 5 6 3 3 5 4 4 2
41 42 42 43 45 45 45 46 46 45 45 44 43 43 43 42 41 41 41 41 39 38 37 36 34 33 33 32 31 29 27 25 23 22 23 22 20 19 21 21 19 18 18 17 15 14 14 13 12 10 8 7 9 10 11 10 9 11 10 10 11 11 11 12 12 10 8 5 4 4 5 5 7 5 3 4 3 4 7 4 3 5 7 6 4
40 42 43 42 43 45 44 45 46 46 45 44 43 43 43 43 42 42 42 41 41 39 38 37 35 34 34 33 33 31 29 27 26 25 24 24 23 21 21 22 22 21 20 18 16 15 15 13 12 10 10 9 10 10 11 9 8 9 10 11 12 12 13 14 13 12 11 10 7 5 5 6 7 6 4 5 5 5 7 6 3 4 5 4 4
41 42 43 42 41 44 45 45 46 47 45 44 44 44 44 43 43 43 42 42 42 41 39 38 37 36 35 34 33 32 31 30 29 28 27 26 25 24 23 24 24 23 21 18 17 17 15 14 12 11 12 11 11 10 9 9 9 10 9 9 11 13 14 13 13 11 11 11 10 6 5 5 6 6 5 6 7 7 7 8 7 5 5 5 5
42 42 43 43 42 43 45 46 47 47 47 46 45 44 44 44 44 43 43 43 42 42 41 39 38 37 36 35 33 33 33 32 31 29 28 27 27 28 28 28 27 26 23 21 20 18 16 15 13 12 12 12 11 10 9 9 12 12 9 8 9 13 14 13 12 11 10 10 10 10 9 6 5 6 6 8 9 9 8 8 8 9 8 8 8
42 42 43 45 45 44 46 47 48 48 48 47 46 45 45 45 44 44 44 44 43 43 42 41 40 38 37 36 34 33 34 34 32 30 29 28 28 30 31 30 28 26 24 23 21 19 17 16 14 12 13 13 11 11 10 10 13 13 11 9 9 12 14 13 12 12 10 11 12 12 10 8 7 7 7 7 10 10 9 8 8 9 10 9 9
41 43 43 45 47 46 47 48 49 49 49 48 47 46 46 45 45 45 44 45 44 44 44 43 42 40 38 37 35 34 34 34 34 32 31 29 29 30 30 29 27 25 24 23 22 20 19 17 15 14 14 12 12 12 12 13 14 14 12 11 10 12 14 13 13 12 11 12 12 11 10 10 10 10 9 8 10 11 10 9 9 8 9 9 9
40 43 43 44 47 48 48 48 49 50 50 50 49 48 47 46 46 45 45 45 45 45 45 44 43 41 40 38 36 36 35 35 35 34 33 31 30 29 30 28 26 24 23 23 22 21 20 18 17 17 15 13 12 13 13 15 15 15 14 13 12 13 14 15 14 13 12 12 12 13 12 12 12 12 11 10 10 10 10 9 9 9 9 9 9
41 44 45 44 46 48 49 49 49 50 50 51 51 50 49 47 46 46 45 45 45 46 46 45 44 43 42 40 37 37 37 37 36 35 35 33 31 31 30 28 26 24 24 23 23 22 21 19 18 18 16 14 14 13 13 15 16 16 15 15 15 15 15 16 15 14 13 12 12 13 12 12 12 12 12 10 9 9 9 9 9 9 9 10 10
41 43 45 44 45 48 49 49 50 51 51 52 52 50 49 48 47 46 46 46 47 47 47 46 46 45 43 41 39 38 39 38 37 36 35 35 34 32 31 29 27 26 25 24 24 24 23 20 19 18 17 15 15 15 14 14 15 16 17 16 16 16 16 16 16 16 14 13 12 12 11 11 11 12 12 12 11 12 12 12 10 10 10 11 11
41 42 44 44 45 47 49 50 49 49 50 50 51 50 49 48 48 47 46 46 46 47 47 46 46 46 44 41 39 39 40 39 38 36 36 36 35 34 33 31 28 27 26 26 26 26 24 22 20 19 18 18 17 17 16 15 15 15 16 16 17 18 18 17 16 16 15 15 14 13 12 11 11 11 11 12 12 12 12 10 9 9 10 11 11
43 45 46 46 47 48 49 50 48 48 48 49 50 50 50 49 48 47 47 45 46 46 47 47 47 47 45 42 40 40 40 39 38 37 37 37 36 35 34 32 30 29 28 28 28 28 26 24 22 19 18 19 19 19 19 18 16 15 15 16 17 19 19 18 17 16 16 16 15 15 14 13 12 11 10 10 11 11 10 9 9 9 10 11 11
46 47 48 48 49 49 50 49 47 46 46 47 49 50 50 50 49 48 47 47 47 47 47 47 47 47 46 44 41 40 40 39 38 38 38 37 37 36 35 33 31 30 30 30 30 30 28 25 23 21 20 20 20 20 20 20 19 17 16 16 18 19 20 19 18 17 16 16 16 15 14 13 13 12 11 11 11 11 10 10 10 11 11 12 13
48 47 47 47 48 48 48 47 46 46 47 48 50 50 50 50 49 48 48 48 48 48 48 47 47 48 48 45 43 41 40 40 38 38 38 38 38 37 36 34 33 33 32 32 32 31 29 27 25 24 23 23 22 21 21 22 21 19 18 18 19 19 19 20 20 20 18 17 17 16 14 13 13 12 12 12 11 10 10 11 11 12 12 12 13
49 48 47 46 46 46 45 46 46 47 48 48 49 50 51 50 49 49 49 49 49 48 48 48 47 48 48 46 44 43 42 41 40 39 39 38 38 38 37 36 35 34 34 34 34 33 31 29 28 27 26 25 24 23 22 23 23 21 19 18 19 20 19 20 21 21 20 19 18 16 15 15 15 14 13 12 11 11 11 11 12 12 13 13 13
48 47 47 44 44 43 43 45 46 47 48 49 50 51 51 50 49 49 50 49 48 48 48 48 48 48 48 47 46 45 44 43 42 41 40 39 38 38 38 38 37 36 35 35 35 35 33 32 31 31 29 28 26 25 25 25 23 21 19 18 19 20 20 20 21 21 21 21 19 17 16 16 16 16 14 13 12 12 12 12 13 13 14 15 15
45 43 42 40 40 42 44 46 48 49 49 49 50 51 50 50 50 49 49 48 48 48 48 48 49 48 49 49 48 47 46 45 44 43 41 40 39 38 38 38 38 37 37 37 37 37 36 35 34 33 32 30 28 27 27 25 23 20 18 18 20 22 22 21 20 20 21 21 19 18 17 17 16 16 15 14 13 12 12 13 14 14 15 15 15
40 39 39 39 40 44 46 48 49 51 51 50 50 50 49 49 49 49 48 48 48 48 48 49 49 49 49 50 50 49 48 47 46 44 43 42 40 40 40 40 40 39 39 38 39 39 38 37 36 35 34 32 30 29 28 24 22 20 16 18 21 23 24 24 22 21 22 21 20 19 18 17 16 16 14 13 13 13 14 14 15 15 16 16 17
40 40 41 42 43 45 47 48 49 50 51 50 49 49 49 48 49 49 48 47 47 48 49 49 49 50 50 51 51 51 49 48 47 45 44 43 43 42 42 41 41 41 41 41 40 40 40 38 37 36 35 34 32 31 29 24 23 20 16 19 23 24 25 27 25 24 23 22 21 20 19 18 16 15 14 13 14 15 14 14 14 14 15 17 18
42 44 45 43 42 44 47 48 49 49 49 49 48 49 49 49 49 48 48 48 48 48 49 49 50 50 51 52 52 51 50 49 47 46 45 44 44 44 44 43 43 42 42 42 42 41 40 39 38 37 37 35 33 33 32 27 24 23 20 20 23 24 26 28 29 27 25 24 22 20 19 18 16 16 15 15 15 14 14 14 14 14 15 17 18
43 44 45 43 41 42 45 47 48 47 47 48 48 48 49 49 49 48 48 49 48 48 49 49 50 51 52 52 51 51 51 49 48 47 46 46 45 45 45 44 44 43 43 43 42 42 41 40 40 39 38 38 36 36 36 32 27 26 24 22 23 26 28 28 30 30 27 24 23 21 19 18 17 16 15 14 14 14 15 16 17 17 18 19 20
40 42 43 43 41 39 40 43 44 44 46 47 48 49 49 50 49 49 49 49 49 49 49 49 51 52 51 51 50 51 51 50 49 48 47 47 46 46 46 45 45 44 43 43 43 43 42 42 42 41 40 39 39 38 38 36 31 29 27 24 24 28 30 29 30 29 27 25 23 21 19 17 15 14 14 14 14 15 17 18 20 21 21 21 21
31 36 39 41 41 38 37 39 40 39 41 45 48 49 50 50 50 50 50 50 50 50 50 51 52 52 51 50 50 51 51 51 50 49 48 47 47 46 45 45 44 43 42 42 43 43 43 43 42 41 40 40 40 40 40 39 34 30 28 25 24 28 30 29 30 29 27 25 23 20 17 15 14 15 16 17 18 18 19 20 21 22 22 22 22
30 35 39 41 42 41 38 38 38 38 39 43 47 49 51 51 51 52 52 51 51 51 51 52 52 51 50 50 50 50 51 51 51 50 49 47 46 45 44 44 43 43 41 41 42 42 43 42 42 41 40 39 40 40 41 40 36 32 28 25 25 28 30 29 30 30 28 25 22 19 18 17 16 16 17 18 19 19 19 19 20 21 21 22 23
35 37 42 44 45 44 42 40 40 40 41 42 45 49 51 52 53 53 52 51 51 52 52 52 52 52 51 51 50 50 49 50 50 50 48 47 46 45 44 44 43 42 41 41 41 41 41 41 41 41 40 38 37 39 41 41 37 34 30 26 27 29 29 29 29 29 27 25 23 21 20 18 17 16 18 19 20 20 17 16 18 21 23 24 26
36 37 41 44 45 44 42 41 40 41 40 41 44 47 47 49 53 53 52 52 52 53 53 53 53 53 52 51 50 49 48 48 48 48 48 47 46 45 44 43 42 41 41 41 41 41 40 40 40 40 39 36 35 38 41 40 39 36 30 26 27 29 29 29 29 29 28 26 24 23 21 20 18 17 19 20 21 21 18 15 16 20 23 26 27
31 36 38 42 44 44 43 40 39 39 39 41 45 46 46 48 51 52 52 53 53 53 53 53 53 53 53 52 51 49 47 46 46 46 46 46 45 44 43 43 42 42 41 40 40 40 40 40 40 40 38 35 34 36 39 40 39 35 27 23 26 28 30 32 31 30 29 27 24 22 22 22 19 17 18 19 18 17 14 11 13 18 22 24 25
23 32 39 43 44 43 40 38 37 38 40 43 45 45 46 49 50 51 52 53 53 53 53 53 53 53 53 52 51 49 47 45 45 44 45 45 44 43 42 42 41 40 39 38 37 38 39 39 40 39 37 34 33 35 36 36 35 32 28 27 28 28 32 36 34 30 29 27 25 24 23 22 20 18 19 19 16 12 9 10 15 19 22 24 25
14 20 30 38 41 38 35 35 36 38 40 41 43 44 46 48 48 50 51 51 52 53 54 53 52 52 52 52 51 49 47 45 44 44 44 43 42 41 40 40 40 40 39 38 37 37 37 38 38 36 34 33 33 33 32 31 33 34 34 33 30 29 34 37 34 31 29 26 25 23 21 21 21 20 20 18 14 13 14 17 19 20 23 27 27
25 21 20 25 31 34 33 33 36 40 42 41 42 44 45 46 48 49 50 50 51 52 53 53 51 50 51 51 50 49 47 45 44 43 42 41 39 39 39 39 39 40 40 40 39 37 36 36 36 34 33 33 32 31 30 30 33 36 36 31 27 31 37 36 32 31 29 27 26 24 21 22 22 20 18 16 14 16 19 20 20 21 25 29 29
27 27 27 26 27 29 31 35 37 39 41 42 43 44 45 46 47 49 50 50 50 51 52 51 50 50 50 50 49 48 46 45 43 41 39 36 35 36 36 36 37 38 39 40 39 37 36 35 33 33 32 32 31 31 31 31 31 33 32 28 25 31 38 37 35 33 30 28 27 25 23 24 23 20 18 17 18 20 22 22 22 24 27 29 28
19 20 25 29 31 31 32 37 41 40 38 40 43 45 46 46 46 47 50 50 50 50 50 48 47 48 49 48 47 46 45 43 41 37 34 32 33 34 34 34 34 35 37 37 37 36 35 33 32 32 32 31 30 30 31 30 28 27 27 25 25 31 35 37 36 34 31 28 25 23 23 24 22 20 19 19 20 22 24 24 24 25 27 29 28
20 20 22 26 31 37 37 37 39 40 37 38 43 46 46 45 45 47 48 49 49 48 46 44 45 47 48 47 46 45 43 40 36 32 31 31 31 32 32 32 31 33 34 35 34 33 32 31 30 31 30 29 30 30 29 27 25 25 24 24 27 31 32 33 32 30 28 25 23 23 23 23 21 19 18 19 21 22 24 25 25 25 27 28 28
17 19 21 24 27 35 40 39 38 40 41 41 45 48 48 45 45 46 47 46 46 45 44 43 44 45 46 45 43 41 37 34 32 31 31 31 30 29 29 28 29 31 32 32 32 31 29 28 28 28 27 28 29 28 25 23 23 24 23 24 28 29 29 28 27 26 23 22 22 22 23 23 21 20 20 21 22 23 23 24 25 26 28 28 28
12 16 18 17 16 18 22 26 30 36 43 45 45 45 45 44 44 44 43 43 43 43 43 43 44 43 42 40 37 34 32 32 33 32 31 30 28 27 26 27 29 31 30 30 30 28 27 26 26 26 27 28 27 25 21 21 22 23 24 26 26 26 26 25 25 24 22 20 19 20 22 22 22 22 22 22 23 23 24 25 26 27 28 29 28
7 9 11 12 10 8 8 13 18 23 30 37 42 43 43 43 42 41 41 40 41 42 43 42 42 40 37 33 31 30 31 33 33 31 30 29 27 26 27 28 29 29 28 28 28 27 25 24 24 24 24 25 24 23 20 19 20 22 25 27 24 22 23 24 24 23 20 18 20 21 21 22 22 22 22 22 23 23 24 25 26 27 28 28 27
7 4 5 8 10 8 6 9 12 13 15 22 32 39 42 40 39 40 40 40 41 43 43 42 39 35 32 31 30 30 31 32 31 31 30 29 27 27 28 28 27 26 25 25 26 25 23 22 22 22 22 22 22 21 19 17 18 21 25 25 22 21 22 23 23 21 19 20 22 22 22 21 22 22 22 22 22 22 22 24 26 28 28 27 26
8 5 2 3 7 9 8 7 8 10 15 21 25 29 33 36 38 40 41 42 44 44 42 39 36 33 32 32 32 32 32 31 30 29 29 28 27 27 27 26 24 23 22 22 23 23 22 21 21 22 21 21 21 21 18 17 18 21 24 24 22 22 23 23 22 21 20 21 22 22 21 21 20 21 21 21 21 21 21 22 24 24 23 22 19
7 4 3 4 6 8 10 11 10 14 22 27 28 27 30 35 38 41 43 44 45 43 40 37 35 35 34 34 34 34 33 30 29 28 28 27 26 24 24 22 21 21 21 21 22 22 21 21 22 22 21 21 22 22 21 19 19 21 22 22 22 24 24 23 22 21 21 21 21 21 20 20 19 20 21 21 20 18 18 17 17 17 16 13 9
5 2 3 8 10 12 15 17 18 20 24 29 31 31 31 34 37 41 44 44 42 40 39 37 36 36 35 35 35 35 33 32 30 29 28 26 24 22 21 20 20 20 21 21 20 20 20 20 21 22 22 23 24 24 22 21 21 21 21 22 24 26 25 24 22 21 21 20 20 20 20 19 19 20 19 18 17 15 14 12 12 11 11 7 4
6 4 2 6 11 14 16 18 20 21 23 28 32 32 30 33 36 39 41 42 40 38 38 37 36 36 35 35 34 33 32 31 30 28 26 24 22 21 19 18 19 19 19 18 18 18 18 18 19 20 22 24 25 25 22 19 19 20 19 21 24 25 24 23 22 20 19 19 19 20 19 18 17 16 15 14 14 14 13 11 10 9 8 6 5
9 7 7 7 10 14 16 17 20 24 24 25 28 28 27 30 33 35 36 39 39 38 37 36 35 35 34 33 32 30 28 26 25 24 23 21 20 19 17 16 16 16 16 16 15 15 15 16 17 18 20 20 20 20 19 17 18 19 19 20 22 22 22 21 20 18 18 18 19 18 16 14 13 12 12 13 14 15 13 11 10 10 8 6 6
15 11 9 9 8 11 14 15 17 20 20 20 21 22 21 24 28 30 32 36 37 37 36 34 33 32 31 29 28 26 23 21 19 18 17 17 18 19 18 16 16 15 15 14 13 13 13 13 13 14 15 15 15 16 17 16 16 17 18 18 19 19 19 18 17 15 15 15 16 15 14 13 13 13 13 14 16 17 15 12 10 10 8 6 6
Wind_Direction
193 193 193 194 193 189 189 193 192 193 195 194 192 191 190 192 197 199 203 207 203 201 201 200 197 192 194 199 200 203 203 198 198 199 205 217 224 228 231 232 228 228 227 222 219 217 219 225 228 230 241 238 229 253 259 254 267 279 271 222 149 134 160 169 117 94 60 109 103 119 98 50 91 106 98 111 108 74 69 79 91 84 59 40 35
192 194 194 194 193 189 189 193 194 194 196 197 197 194 192 194 198 200 202 207 210 208 205 203 203 200 200 202 203 204 203 203 203 203 204 210 220 228 232 234 232 230 224 219 220 219 220 224 221 227 244 255 266 273 283 287 280 262 220 178 148 128 114 75 124 264 281 113 104 137 135 27 104 110 97 113 116 88 91 97 106 108 60 21 50
189 192 194 195 194 190 190 193 195 196 197 198 200 198 195 195 198 201 203 207 212 214 209 206 205 205 206 206 207 207 207 207 208 208 207 209 218 226 231 235 234 230 222 218 220 218 221 224 216 229 243 245 259 278 301 310 276 218 192 162 139 116 95 71 114 300 290 249 168 156 153 38 117 117 106 115 122 123 129 124 132 137 347 327 253
187 190 193 195 194 192 192 194 196 197 197 199 201 201 199 199 200 201 204 208 213 216 214 208 205 205 207 210 212 213 211 210 211 211 207 208 218 227 230 233 232 228 223 221 221 217 219 223 219 230 241 243 262 286 295 299 152 168 172 156 149 133 133 196 350 349 323 231 174 157 153 142 130 125 125 130 134 148 162 150 133 63 5 327 246
187 188 191 194 195 194 194 195 197 197 199 201 203 205 204 204 203 203 205 209 213 217 215 207 203 203 203 205 208 212 213 209 207 207 202 205 217 225 228 230 227 221 219 219 219 218 217 219 225 236 243 250 264 265 252 225 164 146 137 154 165 151 148 189 357 14 8 31 124 142 150 155 139 140 144 139 127 134 150 141 100 41 18 11 190
189 189 190 193 195 195 195 196 197 198 201 203 206 208 208 206 206 205 206 209 214 217 214 207 202 201 201 201 202 205 208 206 204 205 202 202 213 220 223 227 226 218 215 215 218 222 219 221 233 239 245 254 246 232 230 205 174 157 147 172 178 163 157 178 146 35 18 42 95 134 157 164 147 155 162 151 142 129 130 98 68 30 33 87 140
190 191 192 193 195 195 196 197 198 200 202 204 206 208 209 208 208 208 208 209 213 215 214 209 203 203 204 205 206 206 207 207 206 206 204 203 208 215 219 221 221 220 218 217 219 219 219 225 234 238 251 258 230 214 207 179 166 170 194 204 193 177 172 178 172 160 51 93 118 134 161 166 159 172 176 163 168 169 152 120 119 65 68 90 95
190 191 193 194 195 197 198 199 200 201 202 203 204 207 210 210 210 211 210 210 212 214 215 211 206 205 206 207 210 211 211 211 209 205 204 205 206 211 218 218 216 220 224 224 223 220 218 223 231 241 260 260 213 200 194 176 171 181 203 205 196 191 186 187 187 183 170 138 154 186 186 155 163 172 172 174 176 172 166 160 203 204 95 84 66
194 193 195 196 196 198 201 201 201 201 201 203 205 208 210 211 212 212 213 213 212 213 214 213 210 209 209 209 210 213 215 214 211 207 205 206 206 207 214 218 217 221 228 229 226 222 219 222 229 241 261 250 204 197 196 187 183 192 206 199 190 195 190 191 195 186 195 192 176 195 206 158 145 138 144 172 175 180 182 159 168 196 162 138 178
196 197 198 199 199 200 202 202 201 200 202 205 207 208 210 212 212 212 214 215 213 213 214 213 211 211 211 211 212 214 215 213 211 209 207 206 205 203 207 213 217 222 227 228 224 219 219 225 230 241 259 237 200 194 197 195 193 200 210 205 194 194 188 191 200 199 203 214 214 217 209 168 147 134 136 166 175 199 196 177 128 156 169 172 196
196 199 200 201 201 201 202 203 201 200 203 205 206 208 210 212 213 213 215 217 216 214 213 213 213 212 213 214 215 215 214 212 210 209 208 206 203 202 204 209 215 222 226 225 221 217 222 230 235 247 257 232 201 197 195 190 198 207 207 205 200 194 191 194 201 206 208 215 231 236 213 186 168 164 177 178 190 207 202 201 176 149 175 216 230
195 198 199 199 199 200 201 203 201 200 201 204 205 207 209 211 213 214 214 216 217 215 214 214 215 214 215 215 217 217 215 213 211 211 210 207 203 202 205 210 214 220 222 221 218 218 224 230 239 252 248 225 204 206 204 190 197 203 199 202 202 195 195 198 197 201 207 216 226 214 176 176 182 191 211 213 213 218 221 227 230 223 216 222 236
195 196 197 198 198 198 200 202 201 200 201 203 205 206 208 211 212 213 214 215 216 216 215 214 215 216 216 217 218 217 216 215 215 214 213 210 205 202 206 211 215 218 220 220 220 223 226 231 244 253 236 214 202 208 210 197 196 201 205 211 207 200 200 200 199 199 201 203 203 192 178 180 193 199 214 232 236 234 234 235 236 238 229 223 242
197 196 197 198 198 199 200 201 201 201 202 203 204 205 207 209 211 213 214 215 216 216 216 215 216 217 218 219 219 218 217 216 216 216 215 213 208 206 211 216 219 222 223 224 225 226 229 234 245 245 222 204 199 204 206 205 207 209 213 215 212 211 209 204 201 202 200 193 192 193 192 196 212 217 214 228 242 245 247 245 238 237 239 244 254
199 197 197 199 200 199 200 201 202 203 202 202 203 205 207 208 211 213 214 215 216 216 216 216 216 217 219 220 220 219 218 217 217 218 217 216 213 212 215 219 223 225 226 228 227 226 229 234 244 241 222 204 200 201 197 202 214 218 219 219 218 220 218 210 206 207 206 198 195 201 205 206 214 224 229 234 239 241 245 253 254 249 251 255 256
198 196 196 199 200 199 199 201 203 204 203 203 203 204 207 209 211 213 214 216 216 215 216 216 217 218 219 220 220 218 217 217 218 219 218 218 219 218 219 221 223 224 226 228 225 225 230 237 244 241 225 209 206 205 197 199 212 222 226 226 225 227 221 211 208 212 214 208 202 204 210 214 217 222 232 236 232 231 236 248 259 258 257 261 261
195 195 197 199 200 199 200 201 203 203 203 204 204 205 207 209 210 213 214 216 217 216 216 216 217 218 219 221 220 217 217 218 218 218 218 219 221 222 224 224 222 222 223 225 224 226 232 240 244 237 225 213 210 212 206 202 209 221 229 230 229 229 221 211 210 214 217 217 214 210 209 213 218 225 234 237 235 239 244 251 257 253 252 258 263
193 194 197 199 201 200 200 201 203 204 205 205 206 206 207 209 210 212 213 216 218 217 216 216 216 217 219 220 219 218 218 219 220 219 219 219 220 222 224 225 222 221 221 223 224 227 232 238 238 232 228 220 213 213 214 210 208 215 225 229 227 224 218 211 210 213 217 222 222 218 218 219 219 225 233 239 243 245 248 254 254 248 248 253 258
193 196 199 200 202 202 201 202 203 205 207 206 205 205 206 209 211 213 216 219 220 217 216 216 216 217 219 219 219 219 219 220 220 220 219 220 221 221 222 224 222 221 222 222 223 227 230 233 234 231 229 225 218 213 216 217 213 213 219 220 218 218 218 211 208 211 216 221 223 222 225 229 230 231 234 237 241 242 244 248 249 249 253 256 258
196 200 203 204 205 205 203 202 203 205 206 206 205 206 206 208 211 213 216 219 219 217 215 216 217 217 218 219 219 218 218 220 220 219 220 220 221 222 222 223 223 223 223 222 224 228 229 232 236 235 230 228 225 217 214 216 217 215 217 216 211 213 216 214 211 213 216 220 223 224 225 230 236 240 241 243 246 249 253 257 259 262 261 260 261
199 201 204 206 206 206 204 202 202 203 206 206 206 207 206 208 210 212 214 215 216 217 216 216 217 217 217 218 218 217 218 218 219 219 220 220 221 222 222 223 224 224 225 225 226 230 233 235 239 239 236 234 231 224 216 215 216 216 215 214 212 212 215 215 215 217 217 219 223 223 224 229 234 239 241 243 247 250 255 261 264 266 263 260 262
202 202 202 205 206 205 202 200 199 201 205 207 207 207 207 208 210 212 214 215 216 216 216 216 216 216 217 218 218 217 217 217 218 218 219 220 220 222 223 224 225 225 226 228 229 231 234 237 240 241 241 239 237 230 220 216 217 217 215 215 215 215 216 215 217 220 219 218 220 220 221 228 235 237 238 241 245 249 255 262 265 267 269 266 266
201 201 202 205 205 203 200 198 198 200 204 206 206 207 208 209 210 213 215 216 216 216 217 217 217 216 217 218 218 218 217 218 218 218 219 219 220 221 223 225 226 226 227 229 231 232 235 238 241 242 241 241 238 232 225 221 219 217 216 218 220 221 221 216 217 222 221 217 219 219 218 227 235 237 238 241 246 251 256 263 266 268 272 273 274
198 198 202 205 202 199 199 199 200 201 203 204 205 207 208 209 211 214 216 217 216 217 217 217 217 217 217 217 218 219 219 219 219 219 219 219 219 221 223 225 227 227 228 229 231 233 235 237 240 241 240 240 238 234 229 224 221 219 220 222 224 227 227 221 216 218 218 217 218 218 218 223 229 233 235 238 242 248 255 262 266 266 267 271 272
195 195 198 201 200 198 200 202 202 201 202 204 204 205 206 208 211 214 216 217 217 217 217 218 218 217 216 217 218 219 219 220 220 220 220 220 219 221 223 225 227 228 229 230 231 233 234 236 239 240 240 239 238 237 231 224 221 220 223 227 227 229 231 227 220 216 216 217 218 219 221 222 226 231 233 233 236 244 253 259 263 264 265 269 270
190 191 192 196 200 201 201 203 203 201 202 204 204 204 206 208 211 214 215 216 217 217 217 218 219 218 217 217 218 219 220 220 221 222 222 221 221 222 223 225 227 228 230 231 232 234 236 237 238 240 240 239 239 238 231 225 221 218 227 238 231 229 232 230 226 221 218 220 221 222 224 225 227 231 232 235 241 248 255 259 263 267 271 273 275
189 189 190 193 198 201 202 203 204 202 202 204 204 204 206 208 210 213 214 215 216 217 217 218 219 219 218 218 218 219 220 220 221 223 223 222 222 223 224 226 227 229 230 232 233 235 237 239 239 240 241 239 238 236 228 223 220 220 235 244 233 228 230 230 230 228 224 224 224 223 225 227 230 236 240 247 252 256 260 265 268 272 274 276 277
188 188 189 190 193 197 199 202 205 204 203 204 205 206 207 208 210 211 212 213 215 216 216 216 218 219 219 219 220 220 220 221 222 223 223 223 223 223 224 226 227 228 231 233 235 236 238 239 240 241 241 239 237 232 225 218 217 220 232 241 238 235 231 228 228 230 230 230 227 225 229 232 236 243 249 254 258 261 267 271 274 277 279 280 281
184 186 188 190 193 195 198 201 204 205 204 204 205 206 207 208 210 211 211 212 214 216 216 215 217 219 219 220 220 220 220 221 222 222 223 224 224 223 224 226 227 228 231 233 236 237 237 238 239 240 240 238 235 231 226 221 218 222 230 241 248 244 234 228 227 228 230 230 228 230 234 236 240 246 254 261 266 271 275 279 282 283 283 284 285
184 186 189 193 196 197 201 204 205 205 206 205 206 207 207 209 210 210 211 211 212 215 216 215 216 219 220 220 220 220 220 221 221 222 224 225 224 223 223 224 227 229 230 232 234 236 237 238 238 238 238 237 235 231 230 228 225 225 231 241 250 243 232 227 226 226 228 230 230 232 235 241 249 257 266 273 276 277 277 280 284 285 286 286 286
185 190 194 197 199 201 206 207 207 207 208 208 209 209 210 210 210 211 211 211 211 214 216 217 218 219 220 220 220 220 220 221 222 223 224 224 224 223 222 223 226 228 229 231 232 235 237 238 238 239 239 239 236 233 232 233 229 225 231 241 246 238 229 225 225 225 228 230 228 229 230 235 246 256 265 271 274 275 275 277 281 284 285 285 285
187 193 198 202 203 206 210 211 211 211 210 211 213 212 211 211 211 212 213 211 211 213 216 218 218 218 219 221 221 220 220 221 221 222 223 223 222 221 220 222 225 227 229 229 231 234 237 238 239 239 238 239 239 235 235 236 231 226 231 239 241 234 228 226 226 226 226 225 224 225 227 229 234 243 252 261 266 268 271 277 280 281 282 282 282
191 194 197 201 204 207 210 214 215 214 213 214 215 214 213 214 214 214 212 210 210 213 215 217 218 217 219 221 221 220 220 220 221 221 221 221 220 219 219 221 223 226 228 229 231 234 235 238 239 239 237 238 238 237 236 236 233 229 229 232 234 232 229 228 228 228 224 221 220 224 228 231 235 239 244 252 256 257 263 276 281 281 281 281 282
197 199 199 201 204 206 208 211 214 215 215 216 216 216 218 219 217 213 211 210 211 212 214 216 216 217 218 220 221 221 220 220 220 220 219 219 219 219 219 220 222 224 227 229 231 232 235 238 239 239 239 238 237 238 236 234 234 231 227 229 235 234 231 231 231 229 225 222 223 227 230 231 234 239 245 248 254 261 270 279 285 284 283 283 284
208 211 210 207 206 207 208 210 212 214 216 216 216 217 219 219 216 212 210 211 211 211 214 215 216 216 216 218 219 219 219 219 219 218 218 218 218 218 217 218 220 223 226 229 231 232 235 237 238 239 240 239 240 240 236 235 236 230 222 228 237 237 236 235 233 230 225 223 225 230 232 232 233 240 247 251 261 273 280 287 295 292 287 284 285
218 217 216 213 210 209 210 213 215 215 216 216 216 216 217 217 214 212 210 210 210 210 213 215 215 214 214 215 216 216 216 216 216 216 216 216 217 217 216 217 219 221 224 228 232 233 234 236 238 239 239 240 243 241 237 236 233 224 221 230 236 236 237 236 233 229 224 223 228 231 234 237 239 242 248 256 266 269 260 262 275 281 282 282 283
251 233 222 217 218 220 219 218 217 217 217 217 216 216 216 215 213 211 210 209 209 210 213 215 215 214 212 212 213 213 213 214 214 214 214 214 215 216 216 216 218 220 222 226 230 233 235 237 237 237 238 240 242 241 239 236 231 228 233 239 238 233 232 231 229 226 224 227 232 232 234 240 243 244 248 255 257 252 254 263 267 272 278 280 281
271 264 245 227 223 223 223 222 220 218 217 216 215 214 214 214 213 211 209 208 208 210 213 214 214 213 211 209 209 211 212 212 212 212 212 212 214 215 216 217 219 222 224 225 228 231 234 236 236 238 240 241 242 244 243 238 234 236 240 243 236 226 223 224 225 225 227 230 230 228 232 239 241 242 246 250 250 252 259 266 268 273 277 278 280
270 267 263 256 242 231 227 226 224 222 220 217 215 214 213 213 213 211 208 207 207 209 212 213 213 211 208 206 206 208 209 209 209 209 210 213 216 217 217 218 221 223 225 225 226 228 229 232 235 237 239 240 242 245 243 239 237 239 241 242 231 217 216 221 224 226 228 228 229 233 237 238 240 241 244 251 258 259 260 263 268 273 277 279 282
301 293 285 274 260 246 234 228 227 228 226 221 217 214 212 212 212 210 207 206 207 208 210 211 209 206 204 202 202 204 206 207 208 209 212 216 218 218 218 218 218 220 223 224 225 225 226 228 231 233 235 239 242 242 238 236 238 241 243 239 223 211 214 219 223 225 225 224 234 246 242 234 236 242 250 260 263 258 258 264 270 273 276 281 284
308 314 314 303 279 257 245 238 234 232 231 229 223 215 212 211 210 207 206 206 206 207 207 206 203 200 198 198 199 202 204 206 208 212 215 217 218 219 218 217 214 215 219 222 223 224 224 225 226 228 231 237 239 236 232 232 238 245 244 231 215 210 213 217 219 222 224 231 249 254 236 226 233 246 259 265 261 257 260 267 271 274 278 282 285
303 300 307 311 293 264 250 246 242 236 233 232 224 214 209 208 207 205 205 204 203 203 203 201 197 194 193 194 197 199 202 205 210 214 215 215 216 216 215 213 212 212 214 217 220 222 222 221 222 224 229 233 232 229 228 232 240 244 236 217 208 209 211 213 215 220 232 250 258 244 225 225 239 255 266 266 261 261 265 269 272 274 278 282 283
317 302 297 298 293 271 252 245 240 233 227 221 213 205 203 204 204 202 201 200 200 199 197 194 191 188 188 190 193 197 202 208 211 212 214 214 211 206 204 204 205 206 209 213 217 218 217 218 219 223 226 226 225 225 229 233 238 236 224 212 209 211 211 214 223 233 246 254 244 228 227 237 249 260 266 264 262 265 268 271 274 276 279 281 282
336 307 291 272 256 247 234 222 218 216 214 210 205 203 203 202 200 197 196 195 194 191 188 186 184 183 184 187 192 199 204 206 207 208 209 209 202 195 193 195 198 201 205 209 213 215 215 216 217 220 220 219 221 225 229 231 233 228 218 214 218 221 219 225 239 248 248 237 228 231 241 250 256 261 261 260 263 268 271 274 275 277 279 282 283
359 331 278 249 225 210 211 210 200 198 205 210 208 204 200 196 192 191 191 189 185 182 180 179 177 178 183 189 194 198 199 199 200 202 201 198 193 189 191 194 196 199 202 204 208 212 213 214 215 217 217 217 219 223 225 225 226 224 222 225 233 234 230 235 244 245 236 230 234 243 251 257 260 259 258 261 265 267 270 273 275 279 282 283 283
354 352 321 250 214 209 224 230 212 208 219 222 213 202 195 191 187 187 186 182 178 176 173 173 176 182 189 192 189 187 188 189 191 191 190 189 188 189 192 195 196 199 202 205 207 208 210 212 214 216 217 218 220 223 222 218 218 222 228 234 237 232 229 233 237 235 235 239 244 249 256 259 258 256 259 263 266 268 272 277 280 283 283 281 280
1 347 296 249 207 198 205 208 207 211 215 216 211 200 194 190 185 181 179 176 173 172 172 176 181 183 184 182 180 179 180 180 179 180 182 186 189 191 193 196 198 201 204 205 207 208 210 211 212 215 218 220 221 220 216 214 215 218 220 223 223 223 224 226 229 233 238 245 250 254 258 257 256 259 264 266 269 273 277 281 284 282 277 274 274
44 32 237 211 195 188 191 194 199 204 205 203 199 190 182 178 174 172 173 172 171 171 173 174 175 174 173 173 175 176 175 173 174 177 181 184 188 191 194 197 200 204 206 207 210 213 215 213 213 215 219 219 218 217 216 217 218 216 214 215 218 221 224 228 234 240 243 246 251 254 254 255 258 262 264 267 272 275 277 284 289 279 268 262 263
89 82 98 173 176 175 179 180 177 175 175 180 182 178 169 165 164 163 164 166 164 163 164 164 164 165 166 169 171 172 172 172 174 177 179 181 185 189 194 198 201 205 208 212 217 221 223 222 220 221 222 220 217 217 218 221 223 223 225 226 226 229 233 238 241 244 245 247 250 251 252 256 258 259 261 267 273 274 274 284 291 284 275 272 267
86 91 96 121 144 152 154 151 149 149 148 153 159 158 153 155 158 157 157 158 156 154 154 155 158 161 164 165 166 167 169 172 174 176 179 181 185 191 196 199 201 203 206 212 219 224 228 230 230 231 234 231 226 221 218 219 223 225 228 232 234 237 241 242 241 242 244 246 248 249 251 255 259 262 267 272 276 276 275 282 292 296 295 287 274
75 75 89 101 117 139 145 137 135 140 137 129 134 138 139 145 151 153 154 155 153 151 150 152 157 162 163 163 164 164 167 169 171 174 179 185 190 195 197 197 200 203 203 206 210 216 226 233 233 234 233 226 218 216 215 215 216 217 219 226 231 232 232 231 231 234 236 240 245 248 249 257 268 275 279 283 283 278 272 273 284 289 284 269 258